FENGYUN 4B

Last updated on Sat Oct 25 2025 00:02:52 GMT+0000 (Coordinated Universal Time)

1 48808U 21047A 25297.71103009 -.00000318 00000+0 00000+0 0 9999 2 48808 0.1535 281.1954 0010599 77.2364 35.5540 1.00272459 16219
UTC large
Height (km)
Speed (km/s)
/
Latitude / Longitude
Inclination (degrees)
Orbital Period (minutes)
Azimuth
Elevation
Range (km)
Doppler Factor

Next 0 passes for location: London (51.5072 / 0.1276)

Sorry there are no passes over London.